Flag for Austria Weather past 2 weeks in Hollabrunn, Lower Austria, Austria

Now
54 °F

Cool.


Feels Like: 53 °F
Forecast: 44 / 57 °F
Wind: 5 mph from Northeast

Location: Retz

Current Time: Apr 27, 2015 at 4:15:44 AM

Latest Report: Apr 27, 2015 at 3:00 AM


Visibility: N/A

Pressure: 29.70 "Hg

Humidity: 84%

Dew point: 49 °F

Location of HollabrunnLocation

Historic Weather in Hollabrunn — Graph

°F

Hollabrunn temperature yesterday

Maximum temperature yesterday: 70 °F (at 5:00 PM)
Minimum temperature yesterday: 56 °F (at 7:00 AM)
Average temperature yesterday: 62 °F

Past Weeks' High & Low Weather Summary

 TemperatureHumidityPressure
High76 °F (Apr 16, 2:00 PM)93% (Apr 17, 4:00 PM)30.42 "Hg (Apr 17, 4:00 PM)
Low37 °F (Apr 19, 2:00 AM)23% (Apr 21, 6:00 PM)29.71 "Hg (Apr 27, 2:00 AM)
Average55 °F55%30.08 "Hg
* Reported Apr 12 2:00 AM — Apr 27 2:00 AM, Hollabrunn, Weather by CustomWeather, © 2015

Note: Actual official high and low records may vary slightly from our data, if they occured in-between our weather recording intervals... More about our weather records

Advertising

Hollabrunn weather history for previous 24 hours

 ConditionsComfort  
Time TempWeatherWind HumidityBarometerVisibility
2:00 AM
Mon, Apr 27
56 °FCool.3 mph76%29.71 "HgN/A
1:00 AM57 °FCool.2 mph73%29.72 "HgN/A
12:00 AM59 °FCool.1 mph68%29.73 "HgN/A
11:00 PM
Sun, Apr 26
59 °FCool.1 mph66%29.74 "HgN/A
10:00 PM61 °FCool.1 mph65%29.74 "HgN/A
9:00 PM63 °FMild.1 mph61%29.74 "HgN/A
8:00 PM66 °FPartly sunny.2 mph54%29.72 "Hg17 mi
7:00 PM68 °FMild.2 mph51%29.73 "HgN/A
6:00 PM68 °FMild.3 mph50%29.73 "HgN/A
5:00 PM70 °FMild.3 mph49%29.73 "HgN/A
4:00 PM69 °FMild.7 mph50%29.74 "HgN/A
3:00 PM66 °FMild.5 mph55%29.77 "HgN/A
2:00 PM66 °FPartly sunny.5 mph61%29.79 "Hg25 mi
1:00 PM65 °FMild.6 mph56%29.80 "HgN/A
12:00 PM63 °FMild.3 mph64%29.82 "HgN/A
11:00 AM61 °FCool.6 mph67%29.84 "HgN/A
10:00 AM62 °FCool.1 mph67%29.83 "HgN/A
9:00 AM58 °FCool.2 mph77%29.85 "HgN/A
8:00 AM56 °FOvercast.3 mph82%29.85 "Hg17 mi
7:00 AM56 °FFog.3 mph76%29.85 "Hg16 mi
6:00 AM57 °FCool.1 mph68%29.83 "HgN/A
4:00 AM58 °FRefreshingly cool.3 mph59%29.83 "HgN/A
Weather by CustomWeather, © 2015

See weather overviewHow to use our weather pages